Temperature
15 15 15 15 15 15 15 15 15 15 15 14 14 14 14 14 14 14 14 14 14 14 14 14 14 14 14 14 14 14 14 14 14 14 14 14 15 15 15 15 15 14 14
15 15 15 15 15 15 15 15 14 14 14 14 14 14 14 14 14 14 14 14 14 14 14 14 14 14 14 14 14 14 14 14 14 14 14 14 14 14 14 14 14 14 14
15 15 15 15 15 15 14 14 14 14 14 14 14 14 14 13 13 14 14 14 13 13 13 14 14 14 14 13 13 13 13 13 14 14 14 14 14 14 14 14 14 14 14
15 15 15 15 15 14 14 14 14 14 14 14 13 13 13 13 13 13 13 13 13 13 13 13 13 13 13 13 13 13 13 13 13 13 13 13 13 13 13 13 13 13 14
15 15 15 14 14 14 14 14 14 14 13 13 13 13 13 13 13 13 13 13 13 13 13 13 13 13 13 13 13 13 13 13 13 13 13 13 13 13 13 13 13 13 13
14 14 14 14 14 14 14 13 13 13 13 13 13 13 13 12 12 12 12 12 12 12 12 12 13 12 12 12 12 13 12 12 12 12 12 12 13 13 13 13 13 13 13
14 14 14 14 14 14 13 13 13 13 13 13 13 12 12 12 12 12 12 12 12 12 12 12 12 12 12 12 12 12 12 12 12 12 12 12 12 12 12 12 12 12 12
13 13 13 13 13 13 13 13 13 13 12 12 12 12 12 11 12 12 11 12 11 11 11 11 11 11 11 12 12 12 12 12 12 12 12 12 12 12 12 12 12 12 12
13 13 13 13 13 13 13 13 12 12 12 12 12 12 11 11 11 11 11 11 11 11 11 11 11 11 11 11 11 11 11 11 11 11 11 11 11 12 12 12 12 12 12
12 12 12 12 12 12 12 12 12 12 12 12 12 12 11 11 11 10 10 10 10 10 10 10 10 11 10 11 11 11 11 11 11 11 11 11 11 11 11 11 11 11 11
12 12 12 12 12 12 12 12 12 12 11 11 11 11 11 11 11 11 10 10 10 10 10 10 10 10 10 10 10 10 10 10 10 10 11 11 11 11 11 11 10 11 11
12 12 11 11 11 11 11 11 11 11 11 11 11 11 11 11 11 10 10 10 10 10 10 10 10 10 10 10 10 10 10 10 10 10 10 10 10 10 10 10 10 10 10
12 11 11 11 11 11 11 11 11 11 11 11 10 10 10 10 10 10 10 9 9 9 9 9 9 9 9 9 9 9 9 9 9 10 10 10 10 10 10 10 10 10 10
11 11 11 11 11 11 11 10 10 10 10 10 10 10 10 10 10 10 9 9 9 9 9 9 9 9 9 9 9 9 9 9 9 9 9 10 10 10 10 10 9 9 9
11 11 11 11 10 10 10 10 10 10 10 10 10 10 9 9 9 9 9 9 9 8 8 8 9 9 9 9 9 9 9 9 9 9 9 9 9 9 9 9 9 9 9
11 11 11 11 10 10 10 10 10 10 9 9 9 9 9 9 9 9 9 9 8 8 8 8 8 8 8 8 8 8 8 8 8 8 9 9 9 9 8 8 8 9 9
11 11 11 10 10 10 10 10 9 9 9 9 9 9 9 9 8 8 8 8 8 8 8 8 8 8 8 8 8 8 8 8 8 8 8 8 8 8 8 8 8 8 8
11 10 10 10 10 10 10 9 9 9 9 9 9 9 8 8 8 8 8 8 8 8 8 8 8 8 8 8 8 8 8 8 8 8 8 8 8 8 8 8 8 8 8
10 10 10 10 10 9 9 9 9 9 9 9 8 8 8 8 8 8 8 8 8 7 7 7 7 7 7 7 7 7 7 7 7 7 7 7 7 8 7 7 7 7 7
10 10 10 10 9 9 9 9 9 9 8 8 8 8 8 8 8 8 8 7 7 7 7 7 7 7 7 7 7 7 7 7 7 7 7 7 7 7 7 7 7 7 7
10 10 10 10 9 9 9 9 8 8 8 8 8 8 8 7 7 7 7 7 7 7 7 7 7 7 7 6 6 6 6 6 6 6 7 7 7 7 7 7 7 7 7
9 9 9 9 9 9 9 8 8 8 8 8 8 8 8 7 7 7 7 7 7 7 7 6 6 6 6 6 6 6 6 6 6 6 6 6 6 7 7 7 7 6 6
9 9 9 9 9 9 8 8 8 8 8 8 8 8 7 7 7 7 7 6 6 6 6 6 6 6 6 6 6 6 6 6 6 6 6 6 6 6 6 6 6 6 6
9 9 9 9 9 8 8 8 8 8 7 7 7 7 7 7 7 7 6 6 6 6 6 6 6 6 6 6 5 5 5 5 5 5 5 5 6 6 6 6 6 6 6
9 9 8 8 8 8 8 8 7 7 7 7 7 7 7 7 7 6 6 6 6 6 6 6 6 5 5 5 5 5 5 5 5 5 5 5 5 5 6 6 6 6 6
8 8 8 8 8 8 8 7 7 7 7 7 7 7 7 6 6 6 6 6 6 6 6 6 6 6 5 5 5 5 5 5 5 5 5 5 5 5 5 6 5 5 5
Wind_Speed
3 4 5 6 7 7 6 5 6 7 7 7 8 9 8 8 9 8 8 11 11 11 11 11 11 10 9 8 8 9 9 10 10 10 10 10 10 10 10 9 8 7 7
4 4 4 5 5 6 5 5 6 5 5 6 7 8 8 8 9 9 8 9 11 11 11 11 11 9 9 8 9 9 9 9 9 9 9 9 10 10 9 9 9 8 7
5 4 4 4 4 5 6 6 6 6 5 6 6 6 7 8 8 9 9 9 9 10 11 11 11 10 9 9 9 9 8 9 8 8 8 9 9 9 8 8 9 8 8
6 5 4 3 5 5 5 4 4 5 5 5 5 5 5 6 7 8 9 10 10 9 10 12 12 11 10 9 9 9 9 8 8 8 8 8 8 8 8 8 9 9 8
6 6 4 4 5 5 4 4 4 4 4 4 4 5 5 5 6 7 8 10 10 10 10 11 13 13 13 11 9 9 8 8 8 8 8 8 8 8 7 8 8 9 9
6 6 5 5 5 4 4 4 4 4 3 3 5 6 5 5 5 6 6 8 9 10 10 10 10 11 13 13 11 10 9 7 7 8 8 8 8 7 7 7 7 8 8
5 5 4 4 4 4 3 3 3 4 4 3 3 4 4 5 6 5 6 6 7 8 9 10 10 9 9 12 13 11 10 9 7 7 8 8 8 8 8 7 7 8 8
4 4 4 3 3 3 4 4 3 2 2 3 2 2 2 4 4 5 5 5 5 6 7 9 9 9 9 9 11 12 11 9 8 7 8 8 8 8 8 7 7 7 7
4 4 4 4 3 3 3 2 3 3 2 3 3 2 2 1 2 3 4 4 5 4 5 7 8 9 9 9 9 10 11 10 9 9 8 8 8 8 8 8 8 8 8
4 4 4 4 3 3 2 2 2 2 3 2 2 3 2 2 2 1 3 3 4 4 4 5 6 8 9 8 8 10 10 10 10 9 8 8 8 8 8 8 8 8 8
3 3 3 3 3 3 2 2 2 2 2 2 1 1 2 2 2 2 1 3 3 3 3 4 4 6 8 8 8 9 10 10 9 9 8 8 8 8 7 8 7 8 8
2 2 3 3 3 3 2 2 2 3 2 2 2 2 2 1 1 1 1 1 2 3 3 3 4 5 6 7 8 9 9 9 8 8 8 8 7 7 7 7 7 7 7
0 0 2 2 2 2 3 3 3 2 2 2 2 1 1 1 1 2 2 0 1 2 2 2 3 5 6 7 8 8 7 7 7 7 7 7 7 7 7 7 8 7 7
2 1 2 2 2 2 3 3 2 1 2 2 2 1 1 1 1 1 2 2 0 2 2 3 2 4 5 6 8 9 7 6 6 6 6 6 6 6 6 7 7 7 7
1 2 2 2 2 2 3 3 2 1 1 1 1 1 1 0 0 1 1 2 3 1 2 2 2 3 5 5 7 7 7 6 5 5 5 5 5 5 5 6 6 6 6
2 3 3 3 2 2 2 2 1 1 2 1 1 1 1 1 0 1 1 1 2 2 2 2 2 3 4 4 6 7 6 7 6 5 5 5 5 5 5 5 5 5 5
3 3 3 3 2 2 2 2 1 1 1 1 1 0 0 0 0 0 1 1 1 1 2 2 2 2 2 3 5 5 5 5 5 5 4 4 5 5 4 5 5 6 6
2 3 3 3 3 2 2 2 2 1 2 1 1 1 1 0 0 0 0 1 1 1 2 2 2 2 2 2 3 3 4 4 4 4 4 4 4 4 4 3 4 4 5
2 2 3 3 3 3 2 2 2 2 2 2 2 2 2 1 1 1 1 1 1 1 1 2 2 2 2 2 3 3 3 4 4 4 4 4 3 3 3 3 3 4 4
3 3 2 2 3 3 3 3 3 2 2 1 2 2 2 3 3 2 2 2 2 1 1 1 1 2 2 2 1 2 3 3 3 4 4 4 3 2 2 3 3 4 3
3 3 2 2 1 2 3 4 3 3 2 2 2 2 3 3 4 3 2 3 3 2 1 1 1 2 2 1 2 2 3 3 3 2 2 3 2 2 3 3 3 3 3
2 2 3 2 2 2 3 5 4 3 3 3 2 3 3 4 4 4 3 3 3 3 3 2 2 3 4 3 2 2 2 2 3 2 1 3 2 2 3 3 4 3 3
3 3 3 3 3 4 4 4 4 3 3 3 3 3 3 3 2 2 2 2 3 4 5 4 4 5 5 5 3 3 3 3 4 2 1 3 2 3 4 4 4 4 3
3 4 4 3 3 4 5 4 4 3 3 3 4 4 4 3 3 2 2 2 3 4 4 4 5 6 6 5 5 5 4 3 3 2 1 3 3 3 4 4 4 4 4
3 4 3 3 4 5 5 4 3 2 2 3 4 4 4 4 6 3 2 3 3 4 5 6 6 6 7 6 4 2 2 2 3 3 2 2 2 3 3 3 4 4 4
4 4 3 4 4 4 5 5 4 2 2 3 3 4 6 6 6 5 3 3 4 5 4 3 3 4 4 4 5 4 4 4 3 3 3 2 2 1 2 2 2 3 3
Wind_Direction
48 42 43 46 45 46 48 51 54 52 51 54 54 55 52 54 55 51 46 53 55 58 56 56 56 57 63 69 73 72 70 66 65 63 60 60 59 58 55 54 57 59 56
56 54 48 42 42 47 53 57 57 57 52 54 52 50 50 52 52 52 46 45 49 51 50 50 51 52 59 67 67 67 66 62 60 61 60 58 57 57 54 52 55 55 52
63 59 56 45 35 52 62 62 56 58 56 53 47 44 47 48 47 47 46 44 42 45 46 48 47 48 54 62 63 61 61 60 60 62 62 58 56 55 52 50 49 49 48
69 65 57 41 38 57 60 62 52 61 53 49 45 40 42 46 44 47 48 45 42 37 39 44 44 44 48 54 56 55 55 55 57 59 62 58 55 54 51 51 50 47 46
70 71 60 44 49 57 55 64 56 65 63 53 54 46 37 39 38 48 47 45 43 39 36 39 41 41 41 41 45 50 48 47 52 56 60 56 53 55 53 53 51 46 43
67 71 61 49 56 63 58 62 68 57 60 50 62 51 37 35 39 41 43 44 40 39 38 38 38 38 38 36 37 44 43 46 52 54 56 60 56 54 53 51 49 43 40
70 74 66 56 59 68 69 75 83 71 52 39 63 46 32 37 42 37 37 40 36 34 39 39 38 39 34 32 30 35 36 39 49 53 53 54 54 54 53 48 45 43 40
72 81 80 71 68 76 67 63 76 83 49 39 73 79 35 14 20 30 31 37 28 29 34 35 35 35 33 32 27 29 31 32 42 51 53 52 51 50 48 42 39 38 36
72 78 86 83 74 84 89 71 75 95 93 39 49 99 115 179 343 2 24 29 20 24 23 28 32 29 28 31 27 26 28 30 33 42 49 49 48 45 47 43 39 39 36
70 80 88 89 83 80 89 83 80 91 111 92 45 45 89 145 140 2 354 9 15 22 14 20 22 23 24 26 27 26 28 29 34 40 47 50 48 43 43 40 37 34 32
53 67 83 86 85 81 89 87 78 77 94 115 107 88 69 56 78 131 335 340 357 358 2 9 17 19 18 18 23 27 28 31 36 38 40 43 44 42 39 35 31 28 27
38 57 79 80 83 85 93 98 94 88 85 92 89 95 119 125 142 128 155 311 331 329 344 1 14 13 15 14 16 21 28 35 37 38 39 40 38 37 36 33 29 23 23
70 225 102 94 91 94 93 89 94 93 96 100 101 93 96 113 148 142 137 173 330 321 339 350 358 9 11 12 9 12 22 33 34 36 37 35 35 33 33 32 29 28 23
205 158 128 117 102 96 95 93 93 100 90 93 88 94 91 57 120 149 156 149 65 342 347 322 333 2 5 7 6 8 10 21 27 29 30 29 34 40 34 30 30 30 26
164 136 134 129 114 106 105 105 98 94 96 91 80 78 83 39 81 127 145 155 155 203 292 303 321 338 352 359 2 10 8 16 22 25 22 21 28 38 36 36 32 26 23
149 142 145 137 126 113 110 109 99 90 96 61 62 72 46 7 44 75 127 128 147 169 229 272 281 307 332 350 356 6 7 7 16 23 24 30 33 34 33 34 28 23 23
159 155 155 150 144 133 124 121 124 119 109 50 8 85 343 339 69 46 91 105 110 143 213 284 291 307 328 338 346 357 2 6 1 8 17 22 22 23 31 35 29 25 21
160 158 150 154 157 148 144 155 165 157 162 187 230 205 259 205 39 313 153 166 184 177 186 252 295 306 309 315 328 336 353 350 352 346 355 3 4 10 23 21 20 14 13
144 138 149 163 175 170 171 178 179 185 188 203 207 203 219 179 219 251 218 208 216 200 183 212 276 291 301 318 333 330 336 339 340 337 331 336 339 352 2 5 6 8 11
161 166 167 177 186 184 184 188 183 189 199 219 225 223 219 210 211 212 216 209 197 186 191 210 266 292 293 297 318 318 321 325 323 337 330 326 322 335 339 348 351 355 356
180 175 170 176 179 193 195 188 190 193 195 214 243 248 245 240 235 226 228 205 187 188 195 221 258 296 286 283 278 280 294 306 306 327 315 319 327 333 325 318 318 327 332
188 169 184 196 205 228 219 199 185 184 191 202 236 261 268 263 260 254 246 228 209 204 210 221 244 253 260 254 254 267 273 307 296 305 314 298 300 277 292 294 298 299 300
198 193 203 210 224 237 228 216 204 181 197 215 226 241 266 270 274 245 256 259 259 252 229 215 221 236 242 238 226 245 243 247 256 269 283 287 286 272 290 287 288 281 277
209 210 215 219 228 246 236 225 216 180 207 227 230 229 233 249 255 228 223 255 264 266 252 236 227 236 238 232 216 225 230 246 272 270 235 268 285 280 288 295 275 269 276
218 217 217 212 222 249 239 226 211 181 218 245 246 243 235 238 251 243 217 243 266 277 277 263 260 258 255 248 220 193 222 243 268 261 227 239 270 283 279 269 274 262 268
224 216 220 219 221 239 244 239 221 189 217 246 258 257 256 250 252 242 220 223 249 264 270 282 294 294 279 250 224 214 214 228 248 255 229 219 246 282 294 273 271 282 273
Height
1526 1526 1525 1525 1524 1523 1523 1522 1521 1520 1520 1519 1518 1517 1517 1516 1516 1517 1518 1519 1519 1520 1520 1520 1520 1520 1520 1520 1520 1520 1519 1519 1519 1519 1519 1519 1519 1519 1519 1519 1519 1520 1520
1527 1527 1526 1526 1525 1524 1524 1523 1523 1522 1521 1521 1520 1519 1519 1519 1519 1519 1519 1520 1520 1521 1521 1520 1520 1520 1520 1520 1520 1520 1520 1520 1519 1519 1519 1519 1519 1519 1519 1519 1519 1520 1520
1528 1527 1527 1526 1526 1525 1525 1524 1524 1523 1523 1522 1522 1521 1521 1520 1520 1520 1520 1521 1521 1521 1522 1521 1521 1521 1520 1520 1520 1520 1520 1520 1520 1520 1519 1519 1519 1519 1519 1519 1519 1519 1519
1529 1528 1527 1527 1527 1526 1526 1525 1525 1524 1524 1523 1523 1523 1522 1522 1522 1521 1521 1521 1522 1522 1522 1522 1522 1521 1521 1520 1520 1520 1520 1520 1520 1520 1519 1519 1519 1519 1519 1519 1519 1519 1519
1529 1528 1528 1527 1527 1527 1527 1526 1526 1525 1525 1525 1525 1524 1524 1523 1523 1523 1523 1523 1523 1523 1523 1523 1522 1522 1521 1520 1520 1520 1520 1520 1519 1520 1519 1519 1519 1519 1519 1519 1519 1519 1519
1529 1529 1528 1528 1527 1527 1527 1527 1527 1526 1526 1526 1526 1525 1525 1525 1525 1524 1524 1524 1524 1523 1523 1523 1522 1522 1521 1521 1520 1519 1519 1519 1519 1519 1519 1519 1519 1519 1519 1519 1518 1518 1518
1529 1529 1528 1528 1528 1527 1527 1527 1527 1527 1527 1527 1526 1526 1526 1526 1526 1526 1525 1525 1525 1524 1524 1523 1523 1522 1522 1521 1520 1519 1519 1519 1519 1519 1519 1519 1519 1519 1518 1519 1518 1518 1518
1529 1528 1528 1528 1527 1527 1527 1527 1527 1527 1527 1527 1527 1526 1527 1528 1527 1526 1526 1526 1525 1525 1524 1523 1523 1522 1521 1520 1520 1519 1519 1519 1519 1518 1518 1518 1518 1518 1518 1518 1518 1518 1517
1528 1528 1527 1527 1527 1527 1527 1527 1526 1527 1527 1527 1527 1528 1527 1527 1527 1527 1526 1526 1526 1525 1525 1524 1523 1522 1521 1521 1520 1519 1519 1518 1518 1517 1517 1518 1518 1518 1518 1517 1517 1517 1517
1528 1527 1527 1527 1527 1526 1526 1526 1526 1526 1526 1526 1526 1527 1528 1527 1527 1527 1527 1527 1526 1525 1525 1524 1523 1523 1522 1521 1520 1519 1519 1518 1517 1517 1516 1517 1517 1517 1517 1517 1516 1516 1516
1527 1527 1527 1526 1526 1526 1526 1526 1526 1526 1526 1526 1526 1526 1526 1526 1526 1526 1526 1526 1526 1525 1525 1524 1524 1523 1522 1521 1520 1519 1519 1518 1517 1517 1517 1517 1516 1516 1516 1516 1515 1515 1515
1527 1526 1526 1526 1526 1526 1525 1525 1525 1525 1525 1525 1525 1525 1525 1525 1525 1525 1524 1524 1524 1525 1524 1524 1523 1522 1522 1521 1520 1519 1519 1518 1517 1517 1516 1516 1516 1516 1515 1515 1514 1514 1513
1526 1526 1525 1525 1525 1525 1525 1525 1525 1524 1524 1524 1524 1524 1524 1524 1524 1524 1524 1523 1523 1523 1523 1523 1522 1522 1521 1520 1519 1519 1518 1517 1517 1516 1516 1515 1515 1514 1514 1513 1513 1512 1512
1525 1524 1524 1524 1524 1524 1524 1524 1524 1524 1523 1523 1523 1523 1523 1523 1523 1523 1523 1523 1522 1522 1522 1522 1521 1521 1520 1519 1518 1517 1517 1516 1516 1515 1515 1514 1514 1513 1513 1512 1512 1511 1511
1523 1523 1523 1523 1523 1523 1523 1523 1523 1522 1522 1522 1522 1522 1522 1522 1522 1522 1522 1522 1523 1521 1520 1520 1520 1519 1519 1518 1517 1516 1515 1515 1514 1514 1513 1513 1512 1512 1511 1511 1510 1510 1510
1522 1521 1521 1521 1521 1521 1522 1522 1522 1522 1521 1521 1521 1521 1521 1521 1521 1521 1521 1521 1521 1520 1519 1518 1518 1518 1517 1516 1516 1515 1514 1513 1513 1513 1512 1511 1511 1510 1510 1510 1509 1509 1509
1520 1520 1520 1520 1520 1520 1520 1520 1520 1520 1520 1520 1520 1520 1520 1519 1519 1519 1519 1519 1519 1519 1518 1517 1517 1516 1515 1515 1514 1514 1513 1512 1511 1511 1510 1510 1509 1509 1509 1508 1508 1508 1507
1518 1519 1519 1519 1519 1519 1519 1519 1519 1519 1518 1518 1518 1518 1518 1518 1518 1518 1518 1518 1517 1517 1517 1515 1515 1514 1514 1513 1512 1511 1511 1510 1510 1509 1509 1508 1508 1507 1507 1507 1506 1506 1506
1517 1517 1517 1517 1517 1517 1517 1517 1517 1517 1517 1517 1516 1516 1516 1516 1516 1516 1516 1515 1515 1515 1515 1514 1513 1512 1511 1511 1510 1509 1509 1508 1507 1507 1507 1506 1506 1506 1505 1505 1505 1504 1504
1515 1515 1515 1515 1516 1516 1516 1516 1516 1515 1515 1515 1515 1514 1514 1514 1513 1513 1513 1513 1513 1512 1512 1511 1510 1509 1509 1508 1507 1506 1505 1505 1505 1504 1504 1504 1504 1503 1503 1503 1503 1503 1502
1512 1512 1513 1513 1513 1514 1514 1514 1514 1513 1513 1513 1512 1512 1512 1511 1511 1511 1511 1511 1510 1510 1509 1508 1508 1507 1506 1505 1505 1504 1503 1502 1502 1502 1502 1501 1501 1501 1500 1501 1500 1500 1500
1509 1510 1510 1510 1511 1511 1511 1511 1511 1511 1511 1510 1510 1509 1509 1509 1508 1508 1508 1508 1508 1507 1506 1505 1505 1504 1503 1503 1502 1502 1501 1500 1499 1500 1499 1499 1498 1498 1498 1498 1498 1498 1498
1506 1506 1507 1507 1508 1508 1508 1509 1508 1508 1508 1507 1507 1506 1506 1506 1505 1505 1505 1504 1504 1504 1504 1503 1502 1501 1501 1500 1500 1499 1498 1497 1497 1496 1496 1495 1495 1495 1495 1495 1495 1495 1495
1503 1503 1504 1504 1504 1505 1505 1505 1505 1505 1505 1504 1504 1503 1503 1503 1502 1502 1501 1501 1500 1500 1500 1499 1499 1498 1498 1497 1497 1496 1495 1494 1494 1493 1493 1492 1491 1491 1491 1491 1491 1491 1491
1499 1499 1500 1501 1501 1501 1502 1502 1502 1501 1501 1501 1500 1500 1499 1499 1499 1499 1498 1497 1496 1496 1496 1495 1495 1494 1494 1493 1493 1492 1492 1491 1490 1489 1489 1489 1487 1487 1487 1487 1487 1488 1488
1495 1496 1496 1497 1497 1497 1498 1498 1498 1497 1497 1497 1496 1496 1496 1495 1495 1495 1494 1493 1492 1492 1491 1490 1490 1490 1489 1489 1489 1488 1488 1487 1486 1485 1485 1485 1484 1484 1483 1483 1483 1484 1484